Current Temps

Weather Temperatures Right Now
Weather Temperatures - Feels Like

Interactive Temperatures Map | Weather by Zip Code

National Weather Service Data
ASUS41 Bulletin

Most recent data in the last 24 hours

045 
ASUS41 KAKQ 231915  WSI PPS:231915
RWRAKQ

REGIONAL WEATHER ROUNDUP
NATIONAL WEATHER SERVICE WAKEFIELD VA
200 PM EST TUE FEB 23 2016

Note: "fair" indicates few or no clouds below 12,000 feet with no
significant weather and/or obstructions to visibility. * = Denotes
station may not report precipitation (e.g., rain,snow,etc.),
thunder or fog.

VAZ042-051-052>054-056-232000-
NORTHERN VIRGINIA
  
CITY           SKY/WX    TMP DP  RH WIND       PRES   REMARKS
WASH NATIONAL  LGT RAIN  44  41  89 N15       30.10S FOG              
DULLES         LGT RAIN  38  36  92 N14       30.11S VSB 1/2          
FORT BELVOIR   RAIN      45  43  93 N6        30.09S FOG              
QUANTICO       RAIN      45  43  93 NE9       30.10S FOG              
FREDERICKSBRG* DRIZZLE   44  44 100 N5        30.07S                  
STAFFORD*      DRIZZLE   44  42  94 N7        30.12R                  
WARRENTON      DRIZZLE   42  42  99 N10       30.09S                  
CULPEPER*      DRIZZLE   40  39  97 N8        30.11R                  
MANASSAS*      CLOUDY    41  39  93 N15       30.11R FOG              
LEESBURG*      CLOUDY    37  37 100 N9G18     30.13S FOG              
WINCHESTER     CLOUDY    39  37  93 N3        30.12F FOG              
FRONT ROYAL*   CLOUDY    37  37 100 NE5       30.12S                  
LURAY*         RAIN      37  37 100 NE10      30.10S                  
$$

VAZ048-049-060>072-079>083-232000-
CENTRAL AND SOUTH CENTRAL VIRGINIA
  
CITY           SKY/WX    TMP DP  RH WIND       PRES   REMARKS
RICHMOND       DRIZZLE   44  43  96 N9        30.04S FOG              
CHESTERFIELD*  CLOUDY    45  32  61 N7        30.05S                  
PETERSBURG*    CLOUDY    46  45  97 NW3       30.04F FOG              
HANOVER        CLOUDY    44  42  93 N7        30.06F FOG              
TAPPAHANNOCK*  CLOUDY    44  44 100 NW5       30.05F FOG              
QUINTON*       CLOUDY    44  44  99 NW6       30.03F FOG              
CHARLOTTSVILLE CLOUDY    44  41  89 NE7       30.06F FOG              
GORDONSVILLE*  CLOUDY    42  41  97 N6        30.07S FOG              
ORANGE*        DRIZZLE   43  43 100 N7        30.10R                  
LOUISA*        DRIZZLE   45  43  93 N6        30.05S                  
BUMPASS*       CLOUDY    44  43  98 N5        30.06F                  
FARMVILLE*     CLOUDY    46  46 100 N6        30.04F FOG              
CREWE*         CLOUDY    44  44 100 CALM      30.04S                  
FORT PICKETT*  CLOUDY    43  43  98 N8        30.04S                  
CHASE CITY*    CLOUDY    44  42  95 N3        30.03F                  
CLARKSVILLE*   CLOUDY    43  43 100 CALM      30.02F                  
SOUTH HILL*    CLOUDY    43  43  99 N5        30.08F                  
LAWRENCEVILLE* CLOUDY    44  44 100 N3        30.03S                  
EMPORIA*       CLOUDY    43  43 100 NW7       30.05R FOG              
$$

VAZ088>098-232000-
SOUTHEAST VIRGINIA
  
CITY           SKY/WX    TMP DP  RH WIND       PRES   REMARKS
NORFOLK        FOG       45  43  93 N6        30.01S VSB 3/4          
VIRGINIA BEACH LGT RAIN  52  46  80 NW5       30.00S VSB 1            
NORFOLK NAVAL  FOG       47  45  93 NE7       30.02F VSB 1/8          
WEST POINT*    CLOUDY    46  45  98 NE5       30.03F VSB 1            
SALUDA*        CLOUDY    45  45 100 NW3       30.03R VSB 1/2          
NEWPORT NEWS   CLOUDY    49  48  97 NE5       30.02S FOG              
LANGLEY AFB    NOT AVBL                                               
FORT EUSTIS    FOG       50  50 100 N3        30.00S VSB 0            
WILLIAMSBURG*  CLOUDY    50  50 100 CALM      30.03R                  
HR EXEC AP*    CLOUDY    50  46  87 E5        30.02F                  
FRANKLIN*      CLOUDY    49  47  95 CALM      30.02S                  
US460-WAKEFLD  FOG       48  46  93 N3        30.02S VSB 3/4          
$$

VAZ020-022-025-037-045-232000-
WEST CENTRAL AND SOUTHWEST VIRGINIA
  
CITY           SKY/WX    TMP DP  RH WIND       PRES   REMARKS
STAUNTON*      CLOUDY    44  41  91 N14       30.09S FOG              
WAYNESBORO*    CLOUDY    39  38  97 N9        30.06S                  
HOT SPRINGS VA FOG       37  33  85 CALM      29.96F VSB<1/4          
LYNCHBURG      CLOUDY    44  42  93 NE12      30.04F                  
DANVILLE       CLOUDY    46  43  89 N7        30.03F                  
SOUTH BOSTON*  CLOUDY    45  43  95 NE3       30.04F                  
MARTINSVILLE   CLOUDY    41  40  96 NE3       30.05F                  
ROANOKE        CLOUDY    44  43  96 CALM      30.04F FOG              
BLACKSBURG     CLOUDY    43  43 100 E7        30.02F FOG              
DUBLIN*        CLOUDY    45  45  99 E7        29.99F                  
MARION*        CLOUDY    46  43  89 NE12      29.97F                  
HILLSVILLE*    CLOUDY    43  43  99 CALM      29.95F                  
RICHLANDS*     CLOUDY    51  19  28 SE7       29.91F                  
WISE*          DRIZZLE   50  50 100 CALM      29.90F                  
ABINGDON*      CLOUDY    56  46  69 E12       29.90F                  
$$

MDZ021>025-VAZ099-100-232000-
SOUTHERN MARYLAND AND THE DELMARVA PENINSULA
  
CITY           SKY/WX    TMP DP  RH WIND       PRES   REMARKS
PATUXENT RIVER CLOUDY    44  42  93 N7        30.03F                  
BAY BRIDGE APT   N/A     41  41 100 CALM      30.07F                  
LEONARDTOWN    CLOUDY    41  41 100 NE3       30.04F                  
DOVER          NOT AVBL                                               
GEORGETOWN     CLOUDY    47  46  97 NE9       30.05F FOG              
EASTON         LGT RAIN  46  46 100 E12G18    30.07F                  
CAMBRIDGE      CLOUDY    45  45 100 NE7       30.02                   
SALISBURY      CLOUDY    50  48  93 NE9       30.02F FOG              
OCEAN CITY     CLOUDY    49  46  90 NE9       30.03F                  
WALLOPS ISLAND CLOUDY    51  48  89 NE13      30.01F                  
ACCOMACK*      CLOUDY    52  48  87 E8        29.99F                  
$$

NCZ012>017-030>032-232000-
NORTH CENTRAL AND EASTERN NORTH CAROLINA
  
CITY           SKY/WX    TMP DP  RH WIND       PRES   REMARKS
ROANOKE RAPIDS LGT RAIN  45  45 100 NW6       30.03S                  
RALEIGH        FOG       46  44  93 N6        30.01F VSB 1/2          
ELIZABETH CITY CLOUDY    56  53  90 N3        30.00S                  
AHOSKIE*       RAIN      48  47  97 CALM      30.02S                  
EDENTON*       CLOUDY    56  56 100 CALM      30.01S FOG              
CURRITUCK*     RAIN      55  55  99 N3        30.01R                  
KILL DEVIL HLS PTSUNNY   59  53  81 CALM      29.98S HAZE             
MANTEO         MOSUNNY   56  54  92 NE5       29.99S                  
CAPE HATTERAS  CLOUDY    66  61  84 S12       29.98F                  
TARBORO*       LGT RAIN  49  48  94 CALM      30.02F                  
GOLDSBORO      CLOUDY    50  50 100 E2        29.98F                  
WASHINGTON     LGT RAIN  53  51  95 NW3       30.01S                  
GREENVILLE     HVY RAIN  50  50 100 N3        30.03F                  
NEW BERN       PTSUNNY   61  55  81 CALM      30.00S                  
WILMINGTON     LGT RAIN  61  56  83 NE3       29.98F                  
$$

VAZ048-232000-
ELSEWHERE
  
CITY           SKY/WX    TMP DP  RH WIND       PRES   REMARKS
HARRISBURG PA  LGT RAIN  36  34  92 N3        30.17S FOG              
BALTIMORE      RAIN      43  41  93 NE10G20   30.09F VSB 3/4          
ANNAPOLIS      CLOUDY    40  39  97 N9        30.08S                  
ANDREWS AFB    NOT AVBL                                               
PHILADELPHIA   LGT RAIN  43  39  86 NE14      30.15S FOG              
HENDERSON NC   CLOUDY    43  42  95 N7        30.02F                  
GREENSBORO     DRIZZLE   46  45  93 NE8       29.99F FOG              
ROCKY MOUNT    LGT RAIN  48  47  96 N7        30.00F                  
$$

VAZ100-232000-
MARINE
  
STATION/POSITION TIME  TEMP    WIND        PRES    WAVE   SWELL
                       AIR SEA DIR/SP/G            HT/PER HT/PER
                 (UTC) (F)     (DEG/KT/KT) (MB)    (FT/S) (FT/S)
BRANDYWINE LGT   1800   44      80/ 14/ 15 1018.3F
CAPE MAY NJ      1800   46 42   70/ 10/ 16 1018.3F
LEWES DE         1800   44 40   70/ 10/ 12 1018.1F
15NM E FENWICK I 1850   48 43              1015.7F  10/ 8
OCEAN-CITY-INLET 1800   48 41   50/  3/  9 1016.4F
WACHAPREAGUE VA  1800   51 47   40/  9/ 13 1016.3F
GOOSES REEF MD   1900   38 38  350/ 10/ 12 1018.4F   1/ 2
COVE POINT MD    1800   38     360/ 13/ 14 1018.3F
SOLOMONS ISLAND  1800   43 40   10/  4/  9   N/A
BISHOPS HEAD MD  1800           20/  5/  8   N/A
PINEY POINT MD   1800           40/  5/  7   N/A
POTOMAC MD       1900   43 39   20/ 10/ 12 1015.7F   0
CAMBRIDGE MD     1800   44 38   50/  8/ 12 1017.0F
LEWISETTA VA     1800   43 41   50/  5/  9 1016.6F
RAPPAHANNOCK LGT 1800          340/ 13/ 14 1017.0F
STINGRAY PT      1900   41 41  340/ 10/ 12 1016.6S   2/ 3
YORK RVR RNG VA  1800   44      40/  8/ 10 1015.5F
YORKTOWN VA      1800   45 43  320/  4/  4 1016.5F
JAMESTOWN VA     1900   46 44  350/  2/  4   N/A     0
DOMINION TERM VA 1800   48      20/  5/  8 1016.2F
KIPTOPEKE VA     1800      44  340/ 12/ 14   N/A
CHES BAY BRIDGE  1800   43 43  330/ 13/ 14 1015.8F
CAPE HENRY VA    1800   43     330/  9/ 10   N/A
CHESAPEAKE LGHT  1800   46     340/  9/ 10 1016.5F
WILLOUBY STN VA  1800   46      10/ 12/ 13 1016.9F
CAPE HENRY BUOY  1828      44                N/A     5/ 7   2/13
1ST LANDING BUOY 1900      43                N/A     2/ 4
CAPE CHARLES BUO 1826      43                N/A     5/ 7   5/ 7
OFFSHORE WE BUOY 1821      47                N/A     6/ 8   7/ 8
64NM E OF VA BCH 1850   55 51  100/  6/  8 1014.9F   7/ 8   7/ 8
DUCK PIER NC     1800   51 48  310/  8/ 10 1015.4F
44100 DUCK FRF   1824      47                N/A     6/ 7   2/12
44056 DUCK FRF   1811      45                N/A     4/ 7   2/13
OREGON INLET NC  1800   53 46   40/  3/  5 1015.6F
HATTERAS NC      1800   66 57  170/  7/  9 1015.2F
DIAMOND SHLS NC  1850   70 69  180/ 17/ 19 1015.2F   5/12   5/12
CAPE LOOKOUT NC  1800   62     140/ 10/ C1F1C2F2C3F3C4F4C5F5C6F6C7F7C8M1C9!



ASUS41 Bulletin

Most recent data in the last 24 hours

059 
ASUS41 KLWX 261810  WSI DDS:261811
RWRLWX

REGIONAL WEATHER ROUNDUP
NATIONAL WEATHER SERVICE BALTIMORE MD/WASHINGTON DC
100 PM EST FRI FEB 26 2016

Note: "FAIR" indicates few or no clouds below 12,000 feet
with no significant weather and/or obstructions to visibility.
 TC=TEMPERATURE CELSIUS

 * =Non NWS site. Station does not report precipitation (e.g. rain,
    snow, etc.), thunder, or fog.

DCZ001-MDZ009-015-VAZ040>042-051-053>054-261900-
WASHINGTON METRO
  
CITY           SKY/WX    TMP DP  RH WIND       PRES   REMARKS
WASHINGTON NAT FAIR      39  15  37 NW18G33   30.06F                  
DULLES         FAIR      37  15  40 NW26G39   30.05F WCI  25          
ANDREWS AFB    SUNNY     37  13  36 NW21G33   30.03S WCI  27          
FT BELVOIR     FAIR      40  12  31 NW24      30.06S                  
QUANTICO       FAIR      42  17  36 N24G37    30.08R                  
COLLEGE PARK*  FAIR      37  12  35 W17G25    30.05R WCI  28          
LEESBURG*      FAIR      37  19  48 W25G36    30.06F WCI  26          
MANASSAS*      SUNNY     37  16  41 NW21G31   30.09R WCI  27          
GAITHERSBURG*  SUNNY     36  14  41 NW21G31   30.08R WCI  24          

$$

MDZ006>007-011-014-261900-
BALTIMORE METRO
  
CITY           SKY/WX    TMP DP  RH WIND       PRES   REMARKS
BWI AIRPORT    MOSUNNY   38  14  37 W18G33    30.02S WCI  28          
MD SCIENCE CTR   N/A     38  10  31 MISG      30.04R                  
MARTIN STATE   MOSUNNY   39  16  38 W23G31    30.03S WCI  29          
ANNAPOLIS      SUNNY     37  15  40 NW15G30   30.03S WCI  28          
FORT MEADE*    SUNNY     37  16  41 W18G29    30.06S WCI  27          

$$

MDZ012-015-019>023-261900-
MARYLAND EASTERN SHORE
  
CITY           SKY/WX    TMP DP  RH WIND       PRES   REMARKS
OCEAN CITY     MOSUNNY   42  16  34 NW24G35   29.97F                  
SALISBURY      NOT AVBL                                               
BAY BRIDGE AP*   N/A     37  14  38 W16G28    30.03S WCI  28          
CAMBRIDGE*     MOSUNNY   37  16  41 W20G29    30.01S WCI  27          
EASTON*        MOSUNNY   39  18  41 NW15G26   30.05S                  

$$

MDZ017>025-261900-
SOUTHERN MARYLAND
  
CITY           SKY/WX    TMP DP  RH WIND       PRES   REMARKS
PATUXENT RIVER PTSUNNY   42  19  39 NW16      30.03S                  
ST INIGOES     MOSUNNY   42  21  43 W18G30    30.03S                  
LEONARDTOWN*   MOSUNNY   41  18  38 W14G25    30.04S                  

$$

MDZ003>005-261900-
NORTH CENTRAL MARYLAND
  
CITY           SKY/WX    TMP DP  RH WIND       PRES   REMARKS
FREDERICK*     MOSUNNY   36  16  44 W20G30    30.10F WCI  25          
HAGERSTOWN APT MOSUNNY   35  11  36 W26G33    30.05S WCI  22          
WESTMINSTER*   PTSUNNY   34  23  64 W17G24    30.01S WCI  23          

$$

MDZ501>502-261900-
WESTERN MARYLAND
  
CITY           SKY/WX    TMP DP  RH WIND       PRES   REMARKS
OAKLAND*       CLOUDY    18  12  79 W12G23    29.99S HAZE    WCI   5  
CUMBERLAND*    CLOUDY    32  14  47 W7G16     30.15S                  

$$

VAZ025>031-261900-
SHENANDOAH VALLEY
  
CITY           SKY/WX    TMP DP  RH WIND       PRES   REMARKS
WINCHESTER*    PTSUNNY   34  18  51 W20G30    30.09R WCI  22          
FRONT ROYAL*   FAIR      36  12  38 NW10G22   30.08F WCI  28          
LURAY*         FAIR      34  14  44 W15G21    30.10F WCI  24          
NEW MARKET*    CLOUDY    33  15  48 N9G17     30.10S WCI  25          
STAUNTON*      FAIR      44  15  32 NW14G24   30.10S                  
WAYNESBORO*    FAIR      35  10  34 N18G25    30.05F WCI  24          

$$

WVZ021-048>050-054>055-261900-
EASTERN WEST VIRGINIA PANHANDLE
  
CITY           SKY/WX    TMP DP  RH WIND       PRES   REMARKS
MARTINSBURG    FAIR      35  11  36 NW22G30   30.08S WCI  23          
PETERSBURG*    CLOUDY    32  14  47 W17G25    30.14S WCI  21          

$$

VAZ036>039-050-261900-
CENTRAL FOOTHILLS
  
CITY           SKY/WX    TMP DP  RH WIND       PRES   REMARKS
CHARLOTTESVILL FAIR      41  15  35 W8G22     30.06F                  
CULPEPER*      FAIR      38  14  37 NW16G29   30.08F                  
ORANGE*        FAIR      43  19  39 W10G20    30.09R                  
GORDONSVILLE*  FAIR      42  17  37 W7G17     30.06S                  
WARRENTON*     FAIR      40  22  47 NW20G26   30.07R                  

$$

VAZ055>057-261900-
NORTH AND CENTRAL PIEDMONT
  
CITY           SKY/WX    TMP DP  RH WIND       PRES   REMARKS
FREDERICKSBRG* FAIR      43  19  39 NW17G30   30.05S                  
STAFFORD*      FAIR      41  18  39 NW17G23   30.10S                  

$$

NCZ024-NYZ072-PAZ021-071-VAZ022-071-261900-
OTHER REGIONAL OBSERVATIONS
  
CITY           SKY/WX    TMP DP  RH WIND       PRES   REMARKS
NEW YORK CITY  MOSUNNY   35   8  32 NW15G29   29.90R WCI  25          
PHILADELPHIA   PTSUNNY   40  10  29 NW23G35   29.95S                  
PITTSBURGH     CLOUDY    31  11  43 NW22G30   30.12F WCI  18          
ROANOKE        PTSUNNY   35  16  45 W16       30.15R WCI  25          
RICHMOND       FAIR      43  18  36 W14G23    30.04F                  
RALEIGH        MOSUNNY   47  22  37 NW12G20   30.10F                  

$$

ANZ530>537-261900-
MARINE OBSERVATIONS
  
STATION/POSITION TIME  TEMP    WIND        PRES
                       AIR SEA DIR/SP/G
                 (UTC) (F)     (DEG/KT/KT) (MB)
THOMAS PT LIGHT  1800   36 38  320/ 23/ 25 1017.0F
BALT KEY BRIDGE  1700   35     290/ 21/ 28 1016.3R
COVE POINT       1700   37     340/ 19/ 26   N/A
LEWISETTA        1700   39 42  330/ 16/ 22 1017.0R
SOLOMONS ISLAND  1700   39 41  300/ 12/ 19   N/A
PINEY POINT      1700          340/ 25/ 27   N/A

$$



Weather Maps

LOCAL DOPPLER RADAR

LOCAL FORECAST

METRO ZONE WEATHER

REGIONAL WEATHER

EASTERN WEATHER

NATIONAL WEATHER

SEVERE WEATHER

Weather Cams
Topper Shutt Weather Blog
Howard Bernstein Weather Blog
Erica Grow Weather Blog
Weather Photos
Get automated phone alerts when severe weather is in your area. Sign up for the WUSA9 First Alert Weather Call.